Regional Weather Roundup
Issued by NWS

Home | Current Version | Previous Version | Graphics & Text | Print | Product List | Glossary On
Versions: 1 2 3 4 5 6 7 8 9 10 11 12 13 14 15 16 17 18 19 20 21 22 23 24 25 26 27 28 29 30 31 32 33 34 35 36 37 38 39 40 41 42 43 44 45 46 47 48 49 50
000
ASUS43 KMPX 061101
RWRMN
WEATHER ROUNDUP FOR MINNESOTA
NATIONAL WEATHER SERVICE TWIN CITIES/CHANHASSEN MN
600 AM CDT FRI MAY 06 2016


NOTE: "FAIR" INDICATES FEW OR NO CLOUDS BELOW 12,000 FEET WITH NO
SIGNIFICANT WEATHER AND/OR OBSTRUCTIONS TO VISIBILITY. N/A MEANS
CURRENT SKY AND/OR WEATHER CONDITIONS ARE NOT AVAILABLE.

MNZ060>063-068>070-061200-
   Twin Cities Metro

CITY           SKY/WX    TMP DP  RH WIND       PRES   REMARKS
TWIN CITIES    PTCLDY    61  41  47 W9        29.88R
ST PAUL        CLEAR     59  42  53 W6        29.88R
CRYSTAL        CLEAR     64  41  42 SW10      29.85S
BLAINE         CLEAR     63  43  48 SW8       29.86R
EDEN PRAIRIE   CLEAR     58  41  53 SW7       29.87R
SOUTH ST PAUL  CLEAR     62  41  46 W10       29.87R
LAKE ELMO      FAIR      59  43  55 SW6       29.87R
$$
MNZ001>005-007-008-013>017-022>024-027-028-061200-
   Northwest Minnesota

CITY           SKY/WX    TMP DP  RH WIND       PRES   REMARKS
BEMIDJI        CLEAR     62  42  48 SW5       29.75F
HALLOCK        CLOUDY    59  41  51 SE10      29.64F
ROSEAU         CLOUDY    64  48  55 S15       29.65F
WARROAD        CLOUDY    64  48  55 SW13      29.66F
THIEF RVR FALL CLEAR     61  39  44 SW12      29.72S
CROOKSTON      CLEAR     57  43  58 S10       29.71S
FOSSTON        PTCLDY    57  41  54 S9        29.75F
DETROIT LAKES  CLEAR     63  43  48 SW10      29.79S
MOORHEAD       CLEAR     55  43  62 SE8       29.76F
PARK RAPIDS    PTCLDY    60  42  51 SW5       29.78F
MAHNOMEN       FAIR      59  43  54 S13       29.75F
$$
MNZ006-009>011-018-025>026-061200-
   North Central Minnesota

CITY           SKY/WX    TMP DP  RH WIND       PRES   REMARKS
BAUDETTE       PTCLDY    61  42  49 SW7       29.67S
FLAG ISLAND    CLOUDY    64  43  45 SW17      29.61F
INTL FALLS     MOCLDY    68  43  40 W9G17     29.69S
WASKISH        CLEAR     66  46  48 SW9       29.72S
BIG FORK       CLEAR     64  43  45 SW8       29.75S
LONGVILLE      PTCLDY    61  43  51 SW5       29.79S
GRAND RAPIDS   CLEAR     66  39  37 SW6       29.80S
CRANE LAKE     MOCLDY    45  43  93 S3        29.73S
ORR            CLEAR     55  37  50 CALM      29.72R
COOK           CLEAR     61  43  51 SW5       29.75S
WALKER         FAIR      64  41  42 SW8       29.77F
$$
MNZ012-019>021-037-061200-
   Northeast Minnesota

CITY           SKY/WX    TMP DP  RH WIND       PRES   REMARKS
DULUTH         PTCLDY    66  41  40 W16       29.79S
ELY            MOCLDY    61  39  44 SW5       29.75R
HIBBING        CLEAR     55  40  56 SW5       29.77S
EVELETH        CLEAR     52  41  66 W3        29.78S
DULUTH HARBOR  MOCLDY    61  46  59 SW15      29.76S
TWO HARBORS    CLOUDY    70  48  46 W9G18     29.74R
SILVER BAY     PTCLDY    68  39  34 W7        29.72R
GRAND MARAIS     N/A     42  38  85 CALM      29.73R
G MARAIS ARPRT PTCLDY    63  37  39 W9        29.75R
$$
MNZ029>031-032-039>041-046>048-054>057-064-061200-
   West Central Minnesota

CITY           SKY/WX    TMP DP  RH WIND       PRES   REMARKS
FERGUS FALLS   PTCLDY    55  45  67 S9        29.77S
WHEATON        CLEAR     63  46  55 S8        29.79F
MORRIS         CLOUDY    54  43  66 SE9       29.81S
ALEXANDRIA     CLEAR     58  42  55 S10       29.84S
ELBOW LAKE     FAIR      55  44  66 S10       29.81S
WADENA         CLEAR     55  43  62 S5        29.80S
GLENWOOD       CLOUDY    54  43  66 S6        29.85S
APPLETON       CLOUDY    55  43  62 S6        29.82S
BENSON         CLOUDY    54  39  58 S7        29.84S
ORTONVILLE     PTCLDY    64  45  48 SW6       29.80S
MADISON        CLOUDY    66  45  45 SW16      29.82S
WILLMAR        FAIR      54  43  66 SE3       29.87S
$$
MNZ033>034-036-042>043-049>051-058-059-061200-
   Central Minnesota

CITY           SKY/WX    TMP DP  RH WIND       PRES   REMARKS
ST CLOUD       CLEAR     59  41  51 SW7       29.84S
SAUK CENTRE      N/A     52  41  67 CALM      29.84S
PAYNESVILLE    PTCLDY    58  40  51 SW6       29.86S
AITKIN         CLEAR     61  39  44 SW3       29.80R
PINE RIVER     PTCLDY    61  45  55 CALM      29.84S
BRAINERD       CLEAR     50  44  80 CALM      29.82S
STAPLES        CLEAR     59  41  51 S5        29.81S
LONG PRAIRIE   FAIR      54  41  62 S6        29.84S
LITTLE FALLS   CLEAR     55  39  54 CALM      29.84R
LITCHFIELD     CLEAR     59  43  55 SW5       29.87S
BUFFALO        CLEAR     57  41  55 SW3       29.87S
MAPLE LAKE     CLEAR     61  44  52 SW5       29.87S
HUTCHINSON     CLOUDY    57  43  59 CALM      29.89S
$$
MNZ037-044-045-052-053-061200-
   East Central Minnesota

CITY           SKY/WX    TMP DP  RH WIND       PRES   REMARKS
PRINCETON      CLEAR     57  43  58 CALM      29.85R
MORA           CLEAR     54  41  62 SW3       29.85R
CAMBRIDGE      CLEAR     63  45  51 CALM      29.83R
RUSH CITY      MOCLDY    59  43  55 SW5       29.83S
MOOSE LAKE     CLEAR     63  41  45 W5        29.79S
HINCKLEY       CLOUDY    50  45  81 CALM      29.82S
CLOQUET        CLEAR     64  37  36 W12       29.79S
MCGREGOR       CLEAR     55  43  62 CALM      29.81S
$$
MNZ071>073-080-081-089-090-097-098-061200-
   Southwest Minnesota

CITY           SKY/WX    TMP DP  RH WIND       PRES   REMARKS
MONTEVIDEO     CLOUDY    54  43  66 SW5       29.86S
GRANITE FALLS  CLEAR     52  42  68 S9        29.86S
CANBY          CLOUDY    68  46  45 SW13G24   29.85S
MARSHALL       PTCLDY    65  43  44 SW18      29.86S
REDWOOD FALLS  CLEAR     56  41  57 SW8       29.86F
OLIVIA         CLEAR     54  41  62 S8        29.86S
PIPESTONE      PTCLDY    54  45  71 S9        29.91S
WINDOM         CLEAR     57  43  58 SW12      29.92S
WORTHINGTON    CLEAR     58  42  55 SW15      29.93S
JACKSON        CLEAR     55  39  54 SW13      29.94S
TRACY          CLEAR     62  44  50 SW17      29.88S
SLAYTON        CLEAR     56  41  57 SW13      29.92S
$$
MNZ065>067-074>077-082>085-091>093-061200-
   South Central Minnesota

CITY           SKY/WX    TMP DP  RH WIND       PRES   REMARKS
MANKATO        CLEAR     57  39  51 SW9       29.90S
ST JAMES       CLEAR     50  37  62 S7        29.92R
FAIRMONT       CLEAR     61  37  41 SW16      29.92S
GLENCOE        CLEAR     60  45  57 SW6       29.88R
FARIBAULT      CLEAR     57  43  58 S5        29.91R
OWATONNA       CLEAR     55  39  54 SW6       29.91S
WASECA         CLEAR     45  37  76 SW6       29.92S
ALBERT LEA     CLEAR     61  39  44 SW7       29.93R
$$
MNZ078>079-086>088-094>096-061200-
   Southeast Minnesota

CITY           SKY/WX    TMP DP  RH WIND       PRES   REMARKS
ROCHESTER      CLEAR     58  40  51 W15       29.91R
RED WING       CLEAR     57  41  54 W5        29.87R
STANTON        CLEAR     56  41  55 SW3       29.88S
DODGE CENTER   PTCLDY    55  39  54 W12       29.92R
WINONA         CLEAR     46  43  87 CALM      29.90R
AUSTIN         CLEAR     57  39  51 W8        29.92R
PRESTON        CLEAR     56  38  52 W8        29.92R
$$
ABBREVIATIONS USED IN REMARKS
   TC - TEMPERATURES IN CELSIUS
  WCI - WIND CHILL INDEX
   HX - HEAT INDEX
  VSB - VISIBILITY
$$



USA.gov is the U.S. government's official web portal to all federal, state and local government web resources and services.